Home > Weather > Bordeaux > Past weeks

Flag for France Past Weather in Bordeaux, Aquitaine, France — Yesterday and Last 2 Weeks

Now
64 °F

Clear.


Feels Like: 64 °F
Forecast: 58 / 84 °F
Wind: 6 mph from West

Location: Bordeaux / Merignac

Current Time: Aug 29, 2016 at 2:33:11 AM

Latest Report: Aug 29, 2016 at 2:00 AM


Visibility: 10 mi

Pressure: 30.24 "Hg

Humidity: 78%

Dew Point: 57 °F

Location of BordeauxLocation

Past Weather in Bordeaux — Graph

°F

Bordeaux Temperature Yesterday

Maximum temperature yesterday: 84 °F (at 2:30 PM)
Minimum temperature yesterday: 68 °F (at 7:00 AM)
Average temperature yesterday: 74 °F

High & Low Weather Summary for the Past Weeks

 TemperatureHumidityPressure
High99 °F (Aug 23, 5:30 PM)100% (Aug 24, 2:00 AM)30.33 "Hg (Aug 24, 2:00 AM)
Low55 °F (Aug 19, 4:30 AM)21% (Aug 23, 5:30 PM)29.83 "Hg (Aug 19, 6:00 AM)
Average76 °F61%30.04 "Hg
* Reported Aug 14 1:00 AM — Aug 29 1:30 AM, Bordeaux, Weather by CustomWeather, © 2016

Note: Actual official high and low records may vary slightly from our data, if they occured in-between our weather recording intervals... More about our weather records

Advertising

Bordeaux Weather History for the Previous 24 Hours

Scroll right to see more
 ConditionsComfort  
Time TempWeatherWind HumidityBarometerVisibility
1:30 AM
Mon, Aug 29
66 °FClear.6 mph78%30.24 "Hg10 mi
1:00 AM66 °FClear.7 mph78%30.24 "Hg10 mi
12:30 AM66 °FClear.6 mph78%30.24 "Hg10 mi
12:00 AM68 °FClear.6 mph73%30.24 "Hg10 mi
11:30 PM
Sun, Aug 28
68 °FPassing clouds.3 mph73%30.21 "HgN/A
11:00 PM68 °FPassing clouds.3 mph73%30.21 "HgN/A
10:30 PM68 °FPassing clouds.5 mph73%30.21 "HgN/A
10:00 PM70 °FClear.7 mph73%30.21 "Hg10 mi
9:30 PM70 °FScattered clouds.6 mph73%30.21 "HgN/A
9:00 PM72 °FSunny.8 mph69%30.18 "Hg10 mi
8:30 PM72 °FPassing clouds.9 mph69%30.18 "HgN/A
8:00 PM73 °FPassing clouds.13 mph65%30.18 "HgN/A
7:30 PM75 °FPassing clouds.14 mph61%30.15 "HgN/A
7:00 PM77 °FPassing clouds.15 mph57%30.15 "HgN/A
6:30 PM79 °FPassing clouds.15 mph54%30.15 "HgN/A
6:00 PM81 °FPassing clouds.14 mph51%30.15 "HgN/A
5:30 PM82 °FPassing clouds.12 mph45%30.15 "HgN/A
5:00 PM82 °FPassing clouds.12 mph42%30.15 "HgN/A
4:30 PM82 °FPassing clouds.9 mph45%30.15 "HgN/A
4:00 PM82 °FPassing clouds.9 mph42%30.12 "HgN/A
3:30 PM82 °FPassing clouds.10 mph45%30.15 "HgN/A
3:00 PM82 °FPassing clouds.9 mph40%30.15 "HgN/A
2:30 PM84 °FPassing clouds.8 mph40%30.15 "HgN/A
2:00 PM82 °FPassing clouds.7 mph40%30.15 "HgN/A
1:30 PM82 °FPassing clouds.7 mph37%30.15 "HgN/A
1:00 PM81 °FSunny.5 mph39%30.15 "Hg10 mi
12:30 PM79 °FSunny.3 mph45%30.15 "Hg10 mi
12:00 PM77 °FSunny.2 mph47%30.15 "Hg10 mi
11:30 AM77 °FPassing clouds.3 mph51%30.15 "HgN/A
11:00 AM75 °FPassing clouds.3 mph57%30.15 "HgN/A
10:30 AM73 °FScattered clouds.5 mph69%30.15 "HgN/A
10:00 AM70 °FPartly sunny.3 mph78%30.15 "HgN/A
9:30 AM70 °FPassing clouds.3 mph83%30.15 "HgN/A
9:00 AM68 °FPartly sunny.2 mph88%30.12 "HgN/A
8:30 AM68 °FPartly sunny.2 mph88%30.12 "Hg6 mi
8:00 AM68 °FPassing clouds.No wind88%30.12 "HgN/A
7:30 AM68 °FPassing clouds.2 mph88%30.09 "HgN/A
7:00 AM68 °FPassing clouds.3 mph88%30.09 "HgN/A
6:30 AM70 °FLight rain. Mostly cloudy.5 mph83%30.09 "HgN/A
6:00 AM70 °FMostly cloudy.3 mph83%30.09 "HgN/A
5:30 AM70 °FPassing clouds.3 mph83%30.09 "HgN/A
5:00 AM70 °FOvercast.2 mph83%30.09 "HgN/A
4:30 AM70 °FOvercast.2 mph83%30.09 "HgN/A
4:00 AM70 °FOvercast.3 mph83%30.09 "HgN/A
3:30 AM70 °FPassing clouds.3 mph83%30.09 "HgN/A
3:00 AM70 °FPassing clouds.6 mph83%30.09 "HgN/A
2:30 AM70 °FPassing clouds.7 mph83%30.09 "HgN/A
2:00 AM72 °FOvercast.9 mph78%30.09 "HgN/A
Weather by CustomWeather, © 2016

See weather overviewHow to use our weather pages